Time,TemperatureF,DewpointF,PressureIn,WindDirection,WindDirectionDegrees,WindSpeedMPH,WindSpeedGustMPH,Humidity,HourlyPrecipIn,Conditions,Clouds,dailyrainin,SoftwareType,DateUTC
2013-02-02 00:00:00,29.2,10.4,30.35,NNE,23,0.4,0.4,45,0.00,,,0.00,WUHU216HW,2013-02-02 05:00:00,
2013-02-02 00:05:00,29.2,10.4,30.35,ENE,68,0.0,0.4,45,0.00,,,0.00,WUHU216HW,2013-02-02 05:05:00,
2013-02-02 00:10:00,29.0,10.2,30.35,WNW,293,0.4,0.4,45,0.00,,,0.00,WUHU216HW,2013-02-02 05:10:00,
2013-02-02 00:15:00,29.0,10.2,30.35,West,270,0.0,0.7,45,0.00,,,0.00,WUHU216HW,2013-02-02 05:15:00,
2013-02-02 00:20:00,29.0,10.7,30.36,WSW,248,0.0,0.7,46,0.00,,,0.00,WUHU216HW,2013-02-02 05:20:00,
2013-02-02 00:25:00,29.0,10.7,30.36,North,0,0.0,0.4,46,0.00,,,0.00,WUHU216HW,2013-02-02 05:25:00,
2013-02-02 00:30:00,29.0,10.7,30.36,North,0,0.0,0.4,46,0.00,,,0.00,WUHU216HW,2013-02-02 05:30:00,
2013-02-02 00:35:00,28.6,9.9,30.35,NNW,338,0.2,0.4,45,0.00,,,0.00,WUHU216HW,2013-02-02 05:35:00,
2013-02-02 00:40:00,28.4,9.7,30.35,NW,315,0.4,0.4,45,0.00,,,0.00,WUHU216HW,2013-02-02 05:40:00,
2013-02-02 00:45:00,28.3,9.5,30.35,NNW,338,0.4,1.1,45,0.00,,,0.00,WUHU216HW,2013-02-02 05:45:00,
2013-02-02 00:50:00,28.1,9.9,30.35,NE,45,0.0,1.1,46,0.00,,,0.00,WUHU216HW,2013-02-02 05:50:00,
2013-02-02 00:55:00,28.1,9.4,30.35,NE,45,0.0,0.9,45,0.00,,,0.00,WUHU216HW,2013-02-02 05:55:00,
2013-02-02 01:00:00,28.1,9.9,30.35,NNW,338,0.0,0.2,46,0.00,,,0.00,WUHU216HW,2013-02-02 06:00:00,
2013-02-02 01:05:00,27.9,9.2,30.35,North,0,0.7,0.9,45,0.00,,,0.00,WUHU216HW,2013-02-02 06:05:00,
2013-02-02 01:10:00,27.5,8.9,30.34,NNW,338,1.8,1.8,45,0.00,,,0.00,WUHU216HW,2013-02-02 06:10:00,
2013-02-02 01:15:00,27.5,9.4,30.34,East,90,0.0,1.8,46,0.00,,,0.00,WUHU216HW,2013-02-02 06:15:00,
2013-02-02 01:20:00,27.5,8.9,30.35,North,0,0.7,1.8,45,0.00,,,0.00,WUHU216HW,2013-02-02 06:20:00,
2013-02-02 01:25:00,27.4,9.2,30.34,North,0,1.1,2.0,46,0.00,,,0.00,WUHU216HW,2013-02-02 06:25:00,
2013-02-02 01:30:00,27.2,9.0,30.34,NNE,23,0.4,2.0,46,0.00,,,0.00,WUHU216HW,2013-02-02 06:30:00,
2013-02-02 01:35:00,27.0,9.4,30.34,NE,45,0.7,1.6,47,0.00,,,0.00,WUHU216HW,2013-02-02 06:35:00,
2013-02-02 01:40:00,27.0,9.4,30.33,ENE,68,0.7,3.1,47,0.00,,,0.00,WUHU216HW,2013-02-02 06:40:00,
2013-02-02 01:45:00,27.0,9.4,30.33,NNE,23,0.4,3.1,47,0.00,,,0.00,WUHU216HW,2013-02-02 06:45:00,
2013-02-02 01:50:00,27.0,8.8,30.33,NNW,338,0.4,1.3,46,0.00,,,0.00,WUHU216HW,2013-02-02 06:50:00,
2013-02-02 01:55:00,27.0,8.8,30.34,NW,315,0.2,1.8,46,0.00,,,0.00,WUHU216HW,2013-02-02 06:55:00,
2013-02-02 02:00:00,27.0,8.8,30.34,NE,45,0.2,1.8,46,0.00,,,0.00,WUHU216HW,2013-02-02 07:00:00,
2013-02-02 02:05:00,27.0,8.8,30.34,North,0,0.7,1.3,46,0.00,,,0.00,WUHU216HW,2013-02-02 07:05:00,
2013-02-02 02:10:00,27.0,8.8,30.33,North,0,0.0,1.8,46,0.00,,,0.00,WUHU216HW,2013-02-02 07:10:00,
2013-02-02 02:15:00,27.0,8.8,30.34,North,0,0.0,1.8,46,0.00,,,0.00,WUHU216HW,2013-02-02 07:15:00,
2013-02-02 02:20:00,27.0,8.8,30.34,NNW,338,0.2,1.1,46,0.00,,,0.00,WUHU216HW,2013-02-02 07:20:00,
2013-02-02 02:25:00,27.0,8.8,30.34,NE,45,0.0,1.1,46,0.00,,,0.00,WUHU216HW,2013-02-02 07:25:00,
2013-02-02 02:30:00,27.0,9.4,30.34,ESE,113,0.0,0.4,47,0.00,,,0.00,WUHU216HW,2013-02-02 07:30:00,
2013-02-02 02:35:00,27.0,8.8,30.34,NE,45,0.2,0.7,46,0.00,,,0.00,WUHU216HW,2013-02-02 07:35:00,
2013-02-02 02:40:00,27.0,8.8,30.34,NE,45,0.0,0.7,46,0.00,,,0.00,WUHU216HW,2013-02-02 07:40:00,
2013-02-02 02:45:00,27.0,8.8,30.34,NE,45,0.0,0.2,46,0.00,,,0.00,WUHU216HW,2013-02-02 07:45:00,
2013-02-02 02:50:00,27.0,9.4,30.34,NNE,23,0.0,0.0,47,0.00,,,0.00,WUHU216HW,2013-02-02 07:50:00,
2013-02-02 02:55:00,27.0,9.4,30.34,SE,135,0.0,0.2,47,0.00,,,0.00,WUHU216HW,2013-02-02 07:55:00,
2013-02-02 03:00:00,27.0,9.4,30.34,SSW,203,0.0,0.2,47,0.00,,,0.00,WUHU216HW,2013-02-02 08:00:00,
2013-02-02 03:05:00,27.0,9.4,30.34,NNW,338,0.0,0.0,47,0.00,,,0.00,WUHU216HW,2013-02-02 08:05:00,
2013-02-02 03:10:00,27.0,9.4,30.34,NNW,338,0.0,0.0,47,0.00,,,0.00,WUHU216HW,2013-02-02 08:10:00,
2013-02-02 03:15:00,27.0,9.4,30.34,North,0,0.0,0.4,47,0.00,,,0.00,WUHU216HW,2013-02-02 08:15:00,
2013-02-02 03:20:00,26.6,9.0,30.34,North,0,0.0,0.4,47,0.00,,,0.00,WUHU216HW,2013-02-02 08:20:00,
2013-02-02 03:25:00,26.6,9.0,30.34,NNW,338,0.0,0.4,47,0.00,,,0.00,WUHU216HW,2013-02-02 08:25:00,
2013-02-02 03:30:00,26.6,9.0,30.34,NNW,338,0.0,0.4,47,0.00,,,0.00,WUHU216HW,2013-02-02 08:30:00,
2013-02-02 03:35:00,26.6,9.0,30.34,NW,315,0.2,0.4,47,0.00,,,0.00,WUHU216HW,2013-02-02 08:35:00,
2013-02-02 03:40:00,26.5,8.8,30.34,North,0,0.2,0.7,47,0.00,,,0.00,WUHU216HW,2013-02-02 08:40:00,
2013-02-02 03:45:00,26.3,9.2,30.35,WSW,248,0.0,0.7,48,0.00,,,0.00,WUHU216HW,2013-02-02 08:45:00,
2013-02-02 03:50:00,26.6,9.5,30.35,WSW,248,0.0,0.7,48,0.00,,,0.00,WUHU216HW,2013-02-02 08:50:00,
2013-02-02 03:55:00,26.6,9.5,30.35,WSW,248,0.0,0.4,48,0.00,,,0.00,WUHU216HW,2013-02-02 08:55:00,
2013-02-02 04:00:00,26.6,9.5,30.34,WSW,248,0.0,0.4,48,0.00,,,0.00,WUHU216HW,2013-02-02 09:00:00,
2013-02-02 04:05:00,26.5,9.3,30.35,SSW,203,0.0,0.0,48,0.00,,,0.00,WUHU216HW,2013-02-02 09:05:00,
2013-02-02 04:10:00,26.5,9.3,30.35,SSW,203,0.0,0.0,48,0.00,,,0.00,WUHU216HW,2013-02-02 09:10:00,
2013-02-02 04:15:00,26.5,9.3,30.35,SSW,203,0.0,0.0,48,0.00,,,0.00,WUHU216HW,2013-02-02 09:15:00,
2013-02-02 04:20:00,26.3,9.2,30.35,SSW,203,0.0,0.4,48,0.00,,,0.00,WUHU216HW,2013-02-02 09:20:00,
2013-02-02 04:25:00,26.5,9.3,30.34,ESE,113,0.0,0.4,48,0.00,,,0.00,WUHU216HW,2013-02-02 09:25:00,
2013-02-02 04:30:00,26.3,9.2,30.34,ESE,113,0.0,0.4,48,0.00,,,0.00,WUHU216HW,2013-02-02 09:30:00,
2013-02-02 04:35:00,26.3,9.2,30.35,ESE,113,0.0,0.4,48,0.00,,,0.00,WUHU216HW,2013-02-02 09:35:00,
2013-02-02 04:40:00,26.1,9.0,30.35,ESE,113,0.0,0.4,48,0.00,,,0.00,WUHU216HW,2013-02-02 09:40:00,
2013-02-02 04:45:00,25.9,8.8,30.34,SE,135,0.0,0.2,48,0.00,,,0.00,WUHU216HW,2013-02-02 09:45:00,
2013-02-02 04:50:00,25.9,9.3,30.35,ESE,113,0.0,0.2,49,0.00,,,0.00,WUHU216HW,2013-02-02 09:50:00,
2013-02-02 04:55:00,25.9,9.3,30.34,ESE,113,0.0,0.4,49,0.00,,,0.00,WUHU216HW,2013-02-02 09:55:00,
2013-02-02 05:00:00,25.7,9.2,30.35,SSW,203,0.2,0.4,49,0.00,,,0.00,WUHU216HW,2013-02-02 10:00:00,
2013-02-02 05:05:00,25.7,9.6,30.34,SW,225,0.0,0.2,50,0.00,,,0.00,WUHU216HW,2013-02-02 10:05:00,
2013-02-02 05:10:00,25.7,9.6,30.35,SSW,203,0.0,0.2,50,0.00,,,0.00,WUHU216HW,2013-02-02 10:10:00,
2013-02-02 05:15:00,25.6,9.5,30.35,SSE,158,0.2,0.2,50,0.00,,,0.00,WUHU216HW,2013-02-02 10:15:00,
2013-02-02 05:20:00,25.6,9.5,30.35,ESE,113,0.0,0.2,50,0.00,,,0.00,WUHU216HW,2013-02-02 10:20:00,
2013-02-02 05:25:00,25.4,9.3,30.35,NNW,338,0.0,0.2,50,0.00,,,0.00,WUHU216HW,2013-02-02 10:25:00,
2013-02-02 05:30:00,25.2,9.5,30.35,WNW,293,0.0,0.4,51,0.00,,,0.00,WUHU216HW,2013-02-02 10:30:00,
2013-02-02 05:35:00,25.2,9.5,30.35,SE,135,0.0,0.4,51,0.00,,,0.00,WUHU216HW,2013-02-02 10:35:00,
2013-02-02 05:40:00,25.2,9.5,30.35,SSE,158,0.0,0.4,51,0.00,,,0.00,WUHU216HW,2013-02-02 10:40:00,
2013-02-02 05:45:00,25.2,10.0,30.35,SSE,158,0.0,0.4,52,0.00,,,0.00,WUHU216HW,2013-02-02 10:45:00,
2013-02-02 05:50:00,25.2,10.0,30.34,SE,135,0.0,0.2,52,0.00,,,0.00,WUHU216HW,2013-02-02 10:50:00,
2013-02-02 05:55:00,25.0,9.8,30.34,ESE,113,0.4,0.9,52,0.00,,,0.00,WUHU216HW,2013-02-02 10:55:00,
2013-02-02 06:00:00,24.8,9.6,30.34,ESE,113,0.0,0.9,52,0.00,,,0.00,WUHU216HW,2013-02-02 11:00:00,
2013-02-02 06:05:00,24.5,9.7,30.34,WNW,293,0.0,0.4,53,0.00,,,0.00,WUHU216HW,2013-02-02 11:05:00,
2013-02-02 06:10:00,24.5,10.2,30.34,WNW,293,0.2,0.7,54,0.00,,,0.00,WUHU216HW,2013-02-02 11:10:00,
2013-02-02 06:15:00,24.5,10.2,30.35,South,180,0.0,0.7,54,0.00,,,0.00,WUHU216HW,2013-02-02 11:15:00,
2013-02-02 06:20:00,24.5,10.2,30.35,ESE,113,0.0,0.2,54,0.00,,,0.00,WUHU216HW,2013-02-02 11:20:00,
2013-02-02 06:25:00,24.3,10.0,30.35,ENE,68,0.0,0.2,54,0.00,,,0.00,WUHU216HW,2013-02-02 11:25:00,
2013-02-02 06:30:00,24.1,9.8,30.35,NNE,23,0.0,0.2,54,0.00,,,0.00,WUHU216HW,2013-02-02 11:30:00,
2013-02-02 06:35:00,24.1,9.8,30.35,ESE,113,0.0,0.2,54,0.00,,,0.00,WUHU216HW,2013-02-02 11:35:00,
2013-02-02 06:40:00,24.1,9.8,30.35,East,90,0.0,0.4,54,0.00,,,0.00,WUHU216HW,2013-02-02 11:40:00,
2013-02-02 06:45:00,23.8,9.9,30.35,North,0,0.0,0.4,55,0.00,,,0.00,WUHU216HW,2013-02-02 11:45:00,
2013-02-02 06:50:00,23.4,9.6,30.35,North,0,0.0,0.2,55,0.00,,,0.00,WUHU216HW,2013-02-02 11:50:00,
2013-02-02 06:55:00,23.4,9.9,30.36,SW,225,0.0,0.2,56,0.00,,,0.00,WUHU216HW,2013-02-02 11:55:00,
2013-02-02 07:00:00,23.4,9.6,30.36,ESE,113,0.4,0.4,55,0.00,,,0.00,WUHU216HW,2013-02-02 12:00:00,
2013-02-02 07:05:00,23.4,10.4,30.36,SW,225,0.0,0.4,57,0.00,,,0.00,WUHU216HW,2013-02-02 12:05:00,
2013-02-02 07:10:00,23.4,10.4,30.36,WNW,293,0.0,0.4,57,0.00,,,0.00,WUHU216HW,2013-02-02 12:10:00,
2013-02-02 07:15:00,23.4,9.9,30.36,WSW,248,0.0,0.2,56,0.00,,,0.00,WUHU216HW,2013-02-02 12:15:00,
2013-02-02 07:20:00,23.4,9.9,30.36,WNW,293,0.0,0.0,56,0.00,,,0.00,WUHU216HW,2013-02-02 12:20:00,
2013-02-02 07:25:00,23.4,10.4,30.36,WNW,293,0.0,0.0,57,0.00,,,0.00,WUHU216HW,2013-02-02 12:25:00,
2013-02-02 07:30:00,23.4,10.4,30.36,WNW,293,0.2,0.7,57,0.00,,,0.00,WUHU216HW,2013-02-02 12:30:00,
2013-02-02 07:35:00,23.4,10.7,30.36,NW,315,0.0,0.7,58,0.00,,,0.00,WUHU216HW,2013-02-02 12:35:00,
2013-02-02 07:40:00,23.6,11.4,30.36,NW,315,0.0,0.2,59,0.00,,,0.00,WUHU216HW,2013-02-02 12:40:00,
2013-02-02 07:45:00,23.8,11.5,30.36,South,180,0.0,0.0,59,0.00,,,0.00,WUHU216HW,2013-02-02 12:45:00,
2013-02-02 07:50:00,23.8,11.5,30.36,SSW,203,0.0,0.0,59,0.00,,,0.00,WUHU216HW,2013-02-02 12:50:00,
2013-02-02 07:55:00,23.8,11.5,30.36,SW,225,0.0,0.0,59,0.00,,,0.00,WUHU216HW,2013-02-02 12:55:00,
2013-02-02 08:00:00,23.9,11.6,30.36,SSW,203,0.0,0.0,59,0.00,,,0.00,WUHU216HW,2013-02-02 13:00:00,
2013-02-02 08:05:00,24.1,11.8,30.36,ESE,113,0.0,0.4,59,0.00,,,0.00,WUHU216HW,2013-02-02 13:05:00,
2013-02-02 08:10:00,24.3,12.0,30.36,SSW,203,0.0,0.4,59,0.00,,,0.00,WUHU216HW,2013-02-02 13:10:00,
2013-02-02 08:15:00,24.7,12.8,30.37,West,270,0.0,0.2,60,0.00,,,0.00,WUHU216HW,2013-02-02 13:15:00,
2013-02-02 08:20:00,24.8,12.5,30.36,ESE,113,0.4,0.4,59,0.00,,,0.00,WUHU216HW,2013-02-02 13:20:00,
2013-02-02 08:25:00,25.0,12.7,30.36,SSW,203,0.9,1.1,59,0.00,,,0.00,WUHU216HW,2013-02-02 13:25:00,
2013-02-02 08:30:00,25.2,12.4,30.37,SE,135,0.7,1.1,58,0.00,,,0.00,WUHU216HW,2013-02-02 13:30:00,
2013-02-02 08:35:00,25.2,12.1,30.37,ESE,113,0.2,0.9,57,0.00,,,0.00,WUHU216HW,2013-02-02 13:35:00,
2013-02-02 08:40:00,25.6,12.3,30.37,SSE,158,0.4,1.3,57,0.00,,,0.00,WUHU216HW,2013-02-02 13:40:00,
2013-02-02 08:45:00,25.7,12.2,30.37,South,180,0.4,1.3,56,0.00,,,0.00,WUHU216HW,2013-02-02 13:45:00,
2013-02-02 08:50:00,26.1,11.6,30.37,SE,135,0.4,1.1,54,0.00,,,0.00,WUHU216HW,2013-02-02 13:50:00,
2013-02-02 08:55:00,26.3,11.8,30.37,South,180,0.4,1.3,54,0.00,,,0.00,WUHU216HW,2013-02-02 13:55:00,
2013-02-02 09:00:00,26.5,11.5,30.37,SSE,158,1.6,2.5,53,0.00,,,0.00,WUHU216HW,2013-02-02 14:00:00,
2013-02-02 09:05:00,26.6,11.7,30.37,SSW,203,1.8,2.7,53,0.00,,,0.00,WUHU216HW,2013-02-02 14:05:00,
2013-02-02 09:10:00,27.0,11.6,30.37,NE,45,0.0,2.7,52,0.00,,,0.00,WUHU216HW,2013-02-02 14:10:00,
2013-02-02 09:15:00,27.2,11.4,30.37,NNW,338,0.0,2.7,51,0.00,,,0.00,WUHU216HW,2013-02-02 14:15:00,
2013-02-02 09:20:00,27.5,11.8,30.37,ESE,113,0.4,2.7,51,0.00,,,0.00,WUHU216HW,2013-02-02 14:20:00,
2013-02-02 09:25:00,27.7,11.5,30.36,ESE,113,0.0,2.2,50,0.00,,,0.00,WUHU216HW,2013-02-02 14:25:00,
2013-02-02 09:30:00,28.3,11.1,30.36,ESE,113,1.3,2.0,48,0.00,,,0.00,WUHU216HW,2013-02-02 14:30:00,
2013-02-02 09:35:00,28.4,11.3,30.36,NE,45,0.0,2.2,48,0.00,,,0.00,WUHU216HW,2013-02-02 14:35:00,
2013-02-02 09:40:00,28.4,11.3,30.36,WSW,248,0.7,2.2,48,0.00,,,0.00,WUHU216HW,2013-02-02 14:40:00,
2013-02-02 09:45:00,28.6,11.9,30.36,ESE,113,0.7,2.2,49,0.00,,,0.00,WUHU216HW,2013-02-02 14:45:00,
2013-02-02 09:50:00,28.8,11.5,30.36,NE,45,0.4,1.8,48,0.00,,,0.00,WUHU216HW,2013-02-02 14:50:00,
2013-02-02 09:55:00,29.0,11.7,30.36,SSW,203,1.8,2.9,48,0.00,,,0.00,WUHU216HW,2013-02-02 14:55:00,
2013-02-02 10:00:00,29.2,11.9,30.36,SE,135,0.2,2.9,48,0.00,,,0.00,WUHU216HW,2013-02-02 15:00:00,
2013-02-02 10:05:00,29.2,11.3,30.36,ESE,113,2.2,2.2,47,0.00,,,0.00,WUHU216HW,2013-02-02 15:05:00,
2013-02-02 10:10:00,29.2,11.9,30.36,South,180,2.5,2.5,48,0.00,,,0.00,WUHU216HW,2013-02-02 15:10:00,
2013-02-02 10:15:00,29.5,11.7,30.36,ESE,113,0.4,2.5,47,0.00,,,0.00,WUHU216HW,2013-02-02 15:15:00,
2013-02-02 10:20:00,29.7,11.9,30.36,West,270,0.4,2.5,47,0.00,,,0.00,WUHU216HW,2013-02-02 15:20:00,
2013-02-02 10:25:00,29.9,12.1,30.35,North,0,0.0,1.8,47,0.00,,,0.00,WUHU216HW,2013-02-02 15:25:00,
2013-02-02 10:30:00,30.1,11.7,30.35,ESE,113,1.3,2.5,46,0.00,,,0.00,WUHU216HW,2013-02-02 15:30:00,
2013-02-02 10:35:00,30.2,11.9,30.35,East,90,0.0,2.5,46,0.00,,,0.00,WUHU216HW,2013-02-02 15:35:00,
2013-02-02 10:40:00,30.4,12.0,30.34,South,180,1.1,2.2,46,0.00,,,0.00,WUHU216HW,2013-02-02 15:40:00,
2013-02-02 10:45:00,30.6,11.7,30.34,SE,135,2.0,2.5,45,0.00,,,0.00,WUHU216HW,2013-02-02 15:45:00,
2013-02-02 10:50:00,30.6,11.2,30.34,SSW,203,0.4,2.5,44,0.00,,,0.00,WUHU216HW,2013-02-02 15:50:00,
2013-02-02 10:55:00,30.8,11.8,30.34,ESE,113,2.5,2.5,45,0.00,,,0.00,WUHU216HW,2013-02-02 15:55:00,
2013-02-02 11:00:00,31.0,12.0,30.32,NE,45,0.0,3.1,45,0.00,,,0.00,WUHU216HW,2013-02-02 16:00:00,
2013-02-02 11:05:00,31.3,12.3,30.32,SE,135,0.4,3.1,45,0.00,,,0.00,WUHU216HW,2013-02-02 16:05:00,
2013-02-02 11:10:00,31.5,11.4,30.32,ESE,113,0.4,2.9,43,0.00,,,0.00,WUHU216HW,2013-02-02 16:10:00,
2013-02-02 11:15:00,32.0,12.4,30.32,SSW,203,2.2,2.5,44,0.00,,,0.00,WUHU216HW,2013-02-02 16:15:00,
2013-02-02 11:20:00,32.4,12.2,30.31,SE,135,0.4,2.2,43,0.00,,,0.00,WUHU216HW,2013-02-02 16:20:00,
2013-02-02 11:25:00,32.8,12.6,30.30,SSE,158,0.4,2.2,43,0.00,,,0.00,WUHU216HW,2013-02-02 16:25:00,
2013-02-02 11:30:00,33.1,12.4,30.30,SE,135,1.3,2.5,42,0.00,,,0.00,WUHU216HW,2013-02-02 16:30:00,
2013-02-02 11:35:00,33.5,13.2,30.30,SW,225,1.8,2.7,43,0.00,,,0.00,WUHU216HW,2013-02-02 16:35:00,
2013-02-02 11:40:00,33.8,13.6,30.29,South,180,1.1,2.7,43,0.00,,,0.00,WUHU216HW,2013-02-02 16:40:00,
2013-02-02 11:45:00,34.2,14.0,30.29,East,90,1.6,1.8,43,0.00,,,0.00,WUHU216HW,2013-02-02 16:45:00,
2013-02-02 11:50:00,34.2,13.4,30.29,ESE,113,0.7,4.0,42,0.00,,,0.00,WUHU216HW,2013-02-02 16:50:00,
2013-02-02 11:55:00,34.6,14.2,30.28,SSE,158,1.8,4.0,43,0.00,,,0.00,WUHU216HW,2013-02-02 16:55:00,
2013-02-02 12:00:00,34.9,14.6,30.28,SE,135,1.1,2.9,43,0.00,,,0.00,WUHU216HW,2013-02-02 17:00:00,
2013-02-02 12:05:00,35.1,13.7,30.27,SE,135,2.5,3.8,41,0.00,,,0.00,WUHU216HW,2013-02-02 17:05:00,
2013-02-02 12:10:00,35.6,14.8,30.27,SE,135,1.8,3.8,42,0.00,,,0.00,WUHU216HW,2013-02-02 17:10:00,
2013-02-02 12:15:00,36.2,15.2,30.26,SE,135,0.7,3.1,42,0.00,,,0.00,WUHU216HW,2013-02-02 17:15:00,
2013-02-02 12:20:00,36.5,14.5,30.26,ESE,113,2.7,3.8,40,0.00,,,0.00,WUHU216HW,2013-02-02 17:20:00,
2013-02-02 12:25:00,36.7,14.1,30.26,ESE,113,0.2,3.8,39,0.00,,,0.00,WUHU216HW,2013-02-02 17:25:00,
2013-02-02 12:30:00,37.4,15.3,30.25,SE,135,0.4,3.4,40,0.00,,,0.00,WUHU216HW,2013-02-02 17:30:00,
2013-02-02 12:35:00,37.6,14.9,30.25,ESE,113,1.3,3.4,39,0.00,,,0.00,WUHU216HW,2013-02-02 17:35:00,
2013-02-02 12:40:00,37.8,14.9,30.24,SSW,203,0.9,2.5,39,0.00,,,0.00,WUHU216HW,2013-02-02 17:40:00,
2013-02-02 12:45:00,38.2,15.3,30.23,SSE,158,0.4,2.7,39,0.00,,,0.00,WUHU216HW,2013-02-02 17:45:00,
2013-02-02 12:50:00,38.5,15.7,30.22,SSW,203,2.2,2.7,39,0.00,,,0.00,WUHU216HW,2013-02-02 17:50:00,
2013-02-02 12:55:00,38.7,15.8,30.22,South,180,1.6,2.5,39,0.00,,,0.00,WUHU216HW,2013-02-02 17:55:00,
2013-02-02 13:00:00,38.9,15.3,30.21,SSE,158,1.3,5.8,38,0.00,,,0.00,WUHU216HW,2013-02-02 18:00:00,
2013-02-02 13:05:00,38.9,15.9,30.21,SSW,203,0.9,5.8,39,0.00,,,0.00,WUHU216HW,2013-02-02 18:05:00,
2013-02-02 13:10:00,39.2,14.9,30.21,SE,135,3.1,4.7,37,0.00,,,0.00,WUHU216HW,2013-02-02 18:10:00,
2013-02-02 13:15:00,39.6,15.9,30.21,SW,225,0.7,4.7,38,0.00,,,0.00,WUHU216HW,2013-02-02 18:15:00,
2013-02-02 13:20:00,40.1,16.5,30.21,ESE,113,2.0,4.0,38,0.00,,,0.00,WUHU216HW,2013-02-02 18:20:00,
2013-02-02 13:25:00,40.3,15.9,30.20,South,180,2.5,4.0,37,0.00,,,0.00,WUHU216HW,2013-02-02 18:25:00,
2013-02-02 13:30:00,40.5,14.9,30.20,ESE,113,0.7,6.9,35,0.00,,,0.00,WUHU216HW,2013-02-02 18:30:00,
2013-02-02 13:35:00,40.5,14.9,30.20,SW,225,0.4,6.9,35,0.00,,,0.00,WUHU216HW,2013-02-02 18:35:00,
2013-02-02 13:40:00,40.7,14.3,30.19,SSE,158,1.1,3.8,34,0.00,,,0.00,WUHU216HW,2013-02-02 18:40:00,
2013-02-02 13:45:00,40.9,16.5,30.19,South,180,1.3,3.6,37,0.00,,,0.00,WUHU216HW,2013-02-02 18:45:00,
2013-02-02 13:50:00,41.2,16.7,30.18,South,180,2.0,2.9,37,0.00,,,0.00,WUHU216HW,2013-02-02 18:50:00,
2013-02-02 13:55:00,41.4,15.6,30.18,SSE,158,2.2,4.0,35,0.00,,,0.00,WUHU216HW,2013-02-02 18:55:00,
2013-02-02 14:00:00,41.4,16.9,30.18,SSE,158,2.5,4.7,37,0.00,,,0.00,WUHU216HW,2013-02-02 19:00:00,
2013-02-02 14:05:00,41.4,15.6,30.17,SSE,158,2.9,4.7,35,0.00,,,0.00,WUHU216HW,2013-02-02 19:05:00,
2013-02-02 14:10:00,41.6,14.5,30.17,NNE,23,1.1,4.3,33,0.00,,,0.00,WUHU216HW,2013-02-02 19:10:00,
2013-02-02 14:15:00,41.8,16.6,30.16,South,180,1.8,4.0,36,0.00,,,0.00,WUHU216HW,2013-02-02 19:15:00,
2013-02-02 14:20:00,41.9,16.8,30.16,West,270,2.9,4.0,36,0.00,,,0.00,WUHU216HW,2013-02-02 19:20:00,
2013-02-02 14:25:00,42.1,16.2,30.16,SSE,158,2.0,4.3,35,0.00,,,0.00,WUHU216HW,2013-02-02 19:25:00,
2013-02-02 14:30:00,42.3,16.4,30.16,SW,225,3.1,4.3,35,0.00,,,0.00,WUHU216HW,2013-02-02 19:30:00,
2013-02-02 14:35:00,42.3,16.4,30.16,SW,225,1.6,3.4,35,0.00,,,0.00,WUHU216HW,2013-02-02 19:35:00,
2013-02-02 14:40:00,42.3,15.8,30.15,SW,225,1.1,2.5,34,0.00,,,0.00,WUHU216HW,2013-02-02 19:40:00,
2013-02-02 14:45:00,42.5,16.6,30.15,SE,135,1.6,3.6,35,0.00,,,0.00,WUHU216HW,2013-02-02 19:45:00,
2013-02-02 14:50:00,42.5,16.6,30.14,SSE,158,2.5,3.6,35,0.00,,,0.00,WUHU216HW,2013-02-02 19:50:00,
2013-02-02 14:55:00,42.5,16.6,30.14,South,180,4.0,5.8,35,0.00,,,0.00,WUHU216HW,2013-02-02 19:55:00,
2013-02-02 15:00:00,42.3,15.8,30.14,WSW,248,1.1,5.8,34,0.00,,,0.00,WUHU216HW,2013-02-02 20:00:00,
2013-02-02 15:05:00,42.5,15.2,30.13,WSW,248,2.5,5.4,33,0.00,,,0.00,WUHU216HW,2013-02-02 20:05:00,
2013-02-02 15:10:00,42.5,14.6,30.14,SSW,203,3.4,4.7,32,0.00,,,0.00,WUHU216HW,2013-02-02 20:10:00,
2013-02-02 15:15:00,42.8,15.5,30.14,NE,45,2.7,4.7,33,0.00,,,0.00,WUHU216HW,2013-02-02 20:15:00,
2013-02-02 15:20:00,42.8,15.5,30.13,West,270,2.2,4.7,33,0.00,,,0.00,WUHU216HW,2013-02-02 20:20:00,
2013-02-02 15:25:00,42.8,15.5,30.13,SSE,158,1.3,2.7,33,0.00,,,0.00,WUHU216HW,2013-02-02 20:25:00,
2013-02-02 15:30:00,42.8,15.5,30.13,SSE,158,3.1,4.5,33,0.00,,,0.00,WUHU216HW,2013-02-02 20:30:00,
2013-02-02 15:35:00,43.0,17.0,30.13,East,90,1.3,4.5,35,0.00,,,0.00,WUHU216HW,2013-02-02 20:35:00,
2013-02-02 15:40:00,43.2,17.2,30.13,SSE,158,2.0,4.5,35,0.00,,,0.00,WUHU216HW,2013-02-02 20:40:00,
2013-02-02 15:45:00,43.0,17.0,30.12,WSW,248,1.3,4.5,35,0.00,,,0.00,WUHU216HW,2013-02-02 20:45:00,
2013-02-02 15:50:00,43.2,17.2,30.12,SE,135,2.0,4.3,35,0.00,,,0.00,WUHU216HW,2013-02-02 20:50:00,
2013-02-02 15:55:00,43.2,17.2,30.12,SE,135,2.9,4.7,35,0.00,,,0.00,WUHU216HW,2013-02-02 20:55:00,
2013-02-02 16:00:00,43.2,17.2,30.11,SSE,158,1.1,4.7,35,0.00,,,0.00,WUHU216HW,2013-02-02 21:00:00,
2013-02-02 16:05:00,43.2,17.2,30.11,South,180,1.3,2.9,35,0.00,,,0.00,WUHU216HW,2013-02-02 21:05:00,
2013-02-02 16:10:00,43.2,17.2,30.11,SE,135,1.6,4.0,35,0.00,,,0.00,WUHU216HW,2013-02-02 21:10:00,
2013-02-02 16:15:00,43.0,16.3,30.11,SE,135,1.8,4.0,34,0.00,,,0.00,WUHU216HW,2013-02-02 21:15:00,
2013-02-02 16:20:00,43.0,17.0,30.11,WNW,293,1.8,2.7,35,0.00,,,0.00,WUHU216HW,2013-02-02 21:20:00,
2013-02-02 16:25:00,43.0,17.0,30.11,SSE,158,2.7,3.8,35,0.00,,,0.00,WUHU216HW,2013-02-02 21:25:00,
2013-02-02 16:30:00,43.0,17.0,30.11,SSE,158,0.9,3.8,35,0.00,,,0.00,WUHU216HW,2013-02-02 21:30:00,
2013-02-02 16:35:00,43.0,17.6,30.11,SE,135,4.7,4.7,36,0.00,,,0.00,WUHU216HW,2013-02-02 21:35:00,
2013-02-02 16:40:00,43.0,17.0,30.11,SSW,203,0.4,4.7,35,0.00,,,0.00,WUHU216HW,2013-02-02 21:40:00,
2013-02-02 16:45:00,42.8,17.5,30.10,SSE,158,0.4,4.7,36,0.00,,,0.00,WUHU216HW,2013-02-02 21:45:00,
2013-02-02 16:50:00,42.8,17.5,30.10,East,90,0.0,1.1,36,0.00,,,0.00,WUHU216HW,2013-02-02 21:50:00,
2013-02-02 16:55:00,42.8,17.5,30.10,SSE,158,0.2,1.1,36,0.00,,,0.00,WUHU216HW,2013-02-02 21:55:00,
2013-02-02 17:00:00,42.8,17.5,30.10,ENE,68,0.0,0.9,36,0.00,,,0.00,WUHU216HW,2013-02-02 22:00:00,
2013-02-02 17:05:00,42.8,18.2,30.10,SSE,158,0.4,1.1,37,0.00,,,0.00,WUHU216HW,2013-02-02 22:05:00,
2013-02-02 17:10:00,43.0,18.4,30.10,SE,135,0.2,1.1,37,0.00,,,0.00,WUHU216HW,2013-02-02 22:10:00,
2013-02-02 17:15:00,42.8,18.2,30.10,SSE,158,0.4,0.4,37,0.00,,,0.00,WUHU216HW,2013-02-02 22:15:00,
2013-02-02 17:20:00,42.8,18.2,30.09,SSE,158,0.4,1.1,37,0.00,,,0.00,WUHU216HW,2013-02-02 22:20:00,
2013-02-02 17:25:00,42.8,18.8,30.09,SE,135,0.9,1.1,38,0.00,,,0.00,WUHU216HW,2013-02-02 22:25:00,
2013-02-02 17:30:00,42.8,18.8,30.09,East,90,0.4,1.6,38,0.00,,,0.00,WUHU216HW,2013-02-02 22:30:00,
2013-02-02 17:35:00,42.8,18.8,30.09,SSE,158,0.2,2.5,38,0.00,,,0.00,WUHU216HW,2013-02-02 22:35:00,
2013-02-02 17:40:00,42.8,18.8,30.08,SE,135,0.4,2.5,38,0.00,,,0.00,WUHU216HW,2013-02-02 22:40:00,
2013-02-02 17:45:00,42.7,18.6,30.08,SSW,203,0.0,0.9,38,0.00,,,0.00,WUHU216HW,2013-02-02 22:45:00,
2013-02-02 17:50:00,42.7,18.6,30.08,SSE,158,0.0,0.7,38,0.00,,,0.00,WUHU216HW,2013-02-02 22:50:00,
2013-02-02 17:55:00,42.5,18.6,30.08,SE,135,0.0,0.4,38,0.00,,,0.00,WUHU216HW,2013-02-02 22:55:00,
2013-02-02 18:00:00,42.5,18.6,30.08,South,180,0.4,0.7,38,0.00,,,0.00,WUHU216HW,2013-02-02 23:00:00,
2013-02-02 18:05:00,42.5,18.6,30.07,SE,135,0.2,0.7,38,0.00,,,0.00,WUHU216HW,2013-02-02 23:05:00,
2013-02-02 18:10:00,42.3,18.4,30.07,SSE,158,0.0,0.2,38,0.00,,,0.00,WUHU216HW,2013-02-02 23:10:00,
2013-02-02 18:15:00,42.1,18.2,30.07,ESE,113,0.7,0.7,38,0.00,,,0.00,WUHU216HW,2013-02-02 23:15:00,
2013-02-02 18:20:00,42.1,18.2,30.07,SE,135,0.0,0.9,38,0.00,,,0.00,WUHU216HW,2013-02-02 23:20:00,
2013-02-02 18:25:00,42.1,18.2,30.07,ESE,113,0.0,0.9,38,0.00,,,0.00,WUHU216HW,2013-02-02 23:25:00,
2013-02-02 18:30:00,41.9,18.0,30.07,ESE,113,0.0,0.4,38,0.00,,,0.00,WUHU216HW,2013-02-02 23:30:00,
2013-02-02 18:35:00,41.9,18.7,30.07,SSW,203,0.0,0.0,39,0.00,,,0.00,WUHU216HW,2013-02-02 23:35:00,
2013-02-02 18:40:00,41.9,18.7,30.07,SE,135,0.0,0.4,39,0.00,,,0.00,WUHU216HW,2013-02-02 23:40:00,
2013-02-02 18:45:00,41.9,18.7,30.06,SE,135,0.0,0.4,39,0.00,,,0.00,WUHU216HW,2013-02-02 23:45:00,
2013-02-02 18:50:00,42.1,18.8,30.06,West,270,0.2,1.1,39,0.00,,,0.00,WUHU216HW,2013-02-02 23:50:00,
2013-02-02 18:55:00,42.1,19.5,30.06,ESE,113,0.0,1.1,40,0.00,,,0.00,WUHU216HW,2013-02-02 23:55:00,
2013-02-02 19:00:00,41.9,18.7,30.05,ENE,68,1.1,1.3,39,0.00,,,0.00,WUHU216HW,2013-02-03 00:00:00,
2013-02-02 19:05:00,41.9,18.7,30.05,East,90,0.4,1.3,39,0.00,,,0.00,WUHU216HW,2013-02-03 00:05:00,
2013-02-02 19:10:00,41.8,19.2,30.05,NW,315,0.2,0.7,40,0.00,,,0.00,WUHU216HW,2013-02-03 00:10:00,
2013-02-02 19:15:00,41.8,19.2,30.05,SE,135,0.4,0.4,40,0.00,,,0.00,WUHU216HW,2013-02-03 00:15:00,
2013-02-02 19:20:00,41.8,19.2,30.05,SSE,158,0.0,0.4,40,0.00,,,0.00,WUHU216HW,2013-02-03 00:20:00,
2013-02-02 19:25:00,41.8,19.2,30.05,SSE,158,0.0,0.4,40,0.00,,,0.00,WUHU216HW,2013-02-03 00:25:00,
2013-02-02 19:30:00,41.8,19.2,30.04,ESE,113,0.0,0.0,40,0.00,,,0.00,WUHU216HW,2013-02-03 00:30:00,
2013-02-02 19:35:00,41.8,19.2,30.04,SE,135,0.0,0.0,40,0.00,,,0.00,WUHU216HW,2013-02-03 00:35:00,
2013-02-02 19:40:00,41.8,19.2,30.04,SE,135,0.0,0.0,40,0.00,,,0.00,WUHU216HW,2013-02-03 00:40:00,
2013-02-02 19:45:00,41.8,19.2,30.05,West,270,0.2,0.7,40,0.00,,,0.00,WUHU216HW,2013-02-03 00:45:00,
2013-02-02 19:50:00,41.8,19.7,30.04,NNW,338,0.0,0.7,41,0.00,,,0.00,WUHU216HW,2013-02-03 00:50:00,
2013-02-02 19:55:00,41.8,19.7,30.04,North,0,0.0,0.2,41,0.00,,,0.00,WUHU216HW,2013-02-03 00:55:00,
2013-02-02 20:00:00,41.8,19.7,30.03,SE,135,0.4,0.4,41,0.00,,,0.00,WUHU216HW,2013-02-03 01:00:00,
2013-02-02 20:05:00,41.8,19.7,30.03,SE,135,0.0,0.4,41,0.00,,,0.00,WUHU216HW,2013-02-03 01:05:00,
2013-02-02 20:10:00,41.8,20.3,30.03,ESE,113,0.9,0.9,42,0.00,,,0.00,WUHU216HW,2013-02-03 01:10:00,
2013-02-02 20:15:00,41.8,20.3,30.02,SE,135,0.0,0.9,42,0.00,,,0.00,WUHU216HW,2013-02-03 01:15:00,
2013-02-02 20:20:00,41.8,20.3,30.02,North,0,0.0,0.9,42,0.00,,,0.00,WUHU216HW,2013-02-03 01:20:00,
2013-02-02 20:25:00,41.8,20.3,30.03,NE,45,0.0,0.2,42,0.00,,,0.00,WUHU216HW,2013-02-03 01:25:00,
2013-02-02 20:30:00,41.8,20.3,30.02,SSE,158,0.0,0.2,42,0.00,,,0.00,WUHU216HW,2013-02-03 01:30:00,
2013-02-02 20:35:00,41.8,20.3,30.03,West,270,0.4,0.7,42,0.00,,,0.00,WUHU216HW,2013-02-03 01:35:00,
2013-02-02 20:40:00,41.8,20.3,30.02,NNE,23,0.0,0.7,42,0.00,,,0.00,WUHU216HW,2013-02-03 01:40:00,
2013-02-02 20:45:00,41.8,20.3,30.03,SW,225,0.0,0.4,42,0.00,,,0.00,WUHU216HW,2013-02-03 01:45:00,
2013-02-02 20:50:00,41.8,20.3,30.02,SW,225,0.0,0.0,42,0.00,,,0.00,WUHU216HW,2013-02-03 01:50:00,
2013-02-02 20:55:00,41.8,20.3,30.02,SW,225,0.0,0.0,42,0.00,,,0.00,WUHU216HW,2013-02-03 01:55:00,
2013-02-02 21:00:00,41.8,20.3,30.02,SE,135,0.0,0.0,42,0.00,,,0.00,WUHU216HW,2013-02-03 02:00:00,
2013-02-02 21:05:00,41.6,20.1,30.02,West,270,0.0,0.7,42,0.00,,,0.00,WUHU216HW,2013-02-03 02:05:00,
2013-02-02 21:10:00,41.8,20.8,30.02,SSE,158,0.0,0.7,43,0.00,,,0.00,WUHU216HW,2013-02-03 02:10:00,
2013-02-02 21:15:00,41.8,20.8,30.02,SSE,158,0.7,1.1,43,0.00,,,0.00,WUHU216HW,2013-02-03 02:15:00,
2013-02-02 21:20:00,41.8,20.8,30.02,SSE,158,0.9,1.6,43,0.00,,,0.00,WUHU216HW,2013-02-03 02:20:00,
2013-02-02 21:25:00,41.8,20.8,30.02,SE,135,0.7,1.6,43,0.00,,,0.00,WUHU216HW,2013-02-03 02:25:00,
2013-02-02 21:30:00,41.8,20.8,30.02,SSW,203,2.0,2.0,43,0.00,,,0.00,WUHU216HW,2013-02-03 02:30:00,
2013-02-02 21:35:00,41.9,21.0,30.02,SSE,158,1.3,2.5,43,0.00,,,0.00,WUHU216HW,2013-02-03 02:35:00,
2013-02-02 21:40:00,42.1,22.7,30.02,SSE,158,3.6,5.1,46,0.00,,,0.00,WUHU216HW,2013-02-03 02:40:00,
2013-02-02 21:45:00,42.7,25.8,30.02,WSW,248,3.6,6.3,51,0.00,,,0.00,WUHU216HW,2013-02-03 02:45:00,
2013-02-02 21:50:00,43.0,26.2,30.02,SSW,203,2.5,6.3,51,0.00,,,0.00,WUHU216HW,2013-02-03 02:50:00,
2013-02-02 21:55:00,43.2,25.9,30.02,West,270,1.6,5.6,50,0.00,,,0.00,WUHU216HW,2013-02-03 02:55:00,
2013-02-02 22:00:00,43.2,25.9,30.02,SE,135,1.1,3.4,50,0.00,,,0.00,WUHU216HW,2013-02-03 03:00:00,
2013-02-02 22:05:00,43.4,26.5,30.02,West,270,0.2,3.8,51,0.00,,,0.00,WUHU216HW,2013-02-03 03:05:00,
2013-02-02 22:10:00,43.6,27.6,30.02,WSW,248,2.5,5.4,53,0.00,,,0.00,WUHU216HW,2013-02-03 03:10:00,
2013-02-02 22:15:00,43.7,27.7,30.02,SSW,203,0.4,5.4,53,0.00,,,0.00,WUHU216HW,2013-02-03 03:15:00,
2013-02-02 22:20:00,43.9,29.2,30.01,WNW,293,9.2,9.2,56,0.00,,,0.00,WUHU216HW,2013-02-03 03:20:00,
2013-02-02 22:25:00,43.9,29.6,30.02,WSW,248,4.9,9.2,57,0.00,,,0.00,WUHU216HW,2013-02-03 03:25:00,
2013-02-02 22:30:00,43.9,30.1,30.01,WSW,248,3.6,6.0,58,0.00,,,0.00,WUHU216HW,2013-02-03 03:30:00,
2013-02-02 22:35:00,43.9,30.1,30.01,WSW,248,2.7,6.9,58,0.00,,,0.00,WUHU216HW,2013-02-03 03:35:00,
2013-02-02 22:40:00,43.9,30.5,30.01,SW,225,2.9,6.9,59,0.00,,,0.00,WUHU216HW,2013-02-03 03:40:00,
2013-02-02 22:45:00,43.9,31.0,30.01,WSW,248,3.1,4.5,60,0.00,,,0.00,WUHU216HW,2013-02-03 03:45:00,
2013-02-02 22:50:00,43.9,31.0,30.01,NE,45,1.3,4.5,60,0.00,,,0.00,WUHU216HW,2013-02-03 03:50:00,
2013-02-02 22:55:00,43.9,31.8,30.01,WSW,248,3.6,4.0,62,0.00,,,0.00,WUHU216HW,2013-02-03 03:55:00,
2013-02-02 23:00:00,43.9,31.3,30.01,WNW,293,2.2,4.0,61,0.00,,,0.00,WUHU216HW,2013-02-03 04:00:00,
2013-02-02 23:05:00,43.9,31.3,30.00,SSW,203,2.9,4.3,61,0.00,,,0.00,WUHU216HW,2013-02-03 04:05:00,
2013-02-02 23:10:00,43.9,32.1,30.01,SSW,203,3.4,4.3,63,0.00,,,0.00,WUHU216HW,2013-02-03 04:10:00,
2013-02-02 23:15:00,43.9,32.5,30.00,WSW,248,5.1,6.3,64,0.00,,,0.00,WUHU216HW,2013-02-03 04:15:00,
2013-02-02 23:20:00,43.7,32.3,30.01,West,270,1.1,6.3,64,0.00,,,0.00,WUHU216HW,2013-02-03 04:20:00,
2013-02-02 23:25:00,43.7,32.8,30.00,SW,225,1.3,5.1,65,0.00,,,0.00,WUHU216HW,2013-02-03 04:25:00,
2013-02-02 23:30:00,43.6,33.0,30.00,WSW,248,2.9,5.1,66,0.00,,,0.00,WUHU216HW,2013-02-03 04:30:00,
2013-02-02 23:35:00,43.6,33.8,30.00,SSW,203,2.5,4.9,68,0.00,,,0.00,WUHU216HW,2013-02-03 04:35:00,
2013-02-02 23:40:00,43.6,33.3,30.00,WSW,248,1.1,4.9,67,0.00,,,0.00,WUHU216HW,2013-02-03 04:40:00,
2013-02-02 23:45:00,43.6,33.8,30.00,WSW,248,0.4,3.6,68,0.00,,,0.00,WUHU216HW,2013-02-03 04:45:00,
2013-02-02 23:50:00,43.4,33.6,30.00,SSW,203,2.5,3.6,68,0.00,,,0.00,WUHU216HW,2013-02-03 04:50:00,
2013-02-02 23:55:00,43.2,33.8,30.00,SW,225,2.5,4.0,69,0.00,,,0.00,WUHU216HW,2013-02-03 04:55:00,